Regional Weather Roundup
Issued by NWS Goodland, KS

Home | Current Version | Previous Version | Graphics & Text | Print | Product List | Glossary On
Versions: 1 2 3 4 5 6 7 8 9 10 11 12 13 14 15 16 17 18 19 20 21 22 23 24 25 26 27 28 29 30 31 32 33 34 35 36 37 38 39 40 41 42 43 44 45 46 47 48 49 50
000
ASUS43 KGLD 291508
RWRGLD

GOODLAND FORECAST AREA HOURLY WEATHER ROUNDUP
NATIONAL WEATHER SERVICE GOODLAND KS
900 AM MDT FRI JUL 29 2016

...OFFICIAL OBSERVATIONS...

CITY           SKY/WX    TMP DP  RH WIND       PRES   REMARKS
GOODLAND KS    CLOUDY    67  62  84 CALM      30.17R
HILL CITY KS   MOSUNNY   72  65  78 CALM      30.11R
IMPERIAL NEB   SUNNY     69  63  81 CALM      30.15S
MCCOOK NEB     SUNNY     70  63  78 E7        30.14R
AKRON CO       CLOUDY    68  58  70 SE7       30.20R
BURLINGTON CO  CLOUDY    65  60  84 E3        30.20S
LIMON CO       CLOUDY    64  59  83 SE6       30.22F
$$

...UNOFFICIAL OBSERVATIONS...

CITY           SKY/WX    TMP DP  RH WIND       PRES   REMARKS
COLBY KS       CLOUDY    68  68 100 NE3       30.17R
LENORA KS        N/A     73  32  22 MISG        N/A
NORTON KS      SUNNY     73  61  64 E5        30.10F
SHARON SPRINGS   N/A     66  64  94 N6          N/A
KIT CARSON CO    N/A     68  61  77 CALM        N/A
YUMA CO          N/A     69  60  73 CALM        N/A
$$




USA.gov is the U.S. government's official web portal to all federal, state and local government web resources and services.